OK1UDZ-5 Weather Reports


time (UTC)temp
F
wind
direction
speed
knots
gust
knots
rain 1hr
in
rain 24hr
in
rain mn
in
humidity
%
barometer
mb
20260507204023 0 45 0.0 0.0 0.00 0.00 0.00 1014.5
20260507203220 0 45 0.0 0.0 0.00 0.00 0.00 1014.4
20260507202419 0 45 0.0 0.0 0.00 0.00 0.00 1014.4
20260507201615 0 45 0.0 0.0 0.00 0.00 0.00 1014.2
20260507200810 0 45 0.0 0.0 0.00 0.00 0.00 1014.2
20260507195157 0 45 0.0 0.0 0.00 0.00 0.00 1013.9
20260507194350 0 45 0.0 0.0 0.00 0.00 0.00 1013.8
20260507193543 0 45 0.0 0.0 0.00 0.00 0.00 1013.8
20260507192737 0 45 0.0 0.0 0.00 0.00 0.00 1013.7
20260507191933 0 45 0.0 0.0 0.00 0.00 0.00 1013.6
20260507191129 0 45 0.0 0.0 0.00 0.00 0.00 1013.4
20260507190313 0 45 0.0 0.0 0.00 0.00 0.00 1013.3
20260507185507 0 45 0.0 0.0 0.00 0.00 0.00 1013.1
20260507184701 0 45 0.0 0.0 0.00 0.00 0.00 1013.1
20260507183859 0 45 0.0 0.0 0.00 0.00 0.00 1012.9
20260507183047 0 45 0.0 0.0 0.00 0.00 0.00 1012.7
20260507182244 0 45 0.0 0.0 0.00 0.00 0.00 1012.4
20260507181441 0 45 0.0 0.0 0.00 0.00 0.00 1012.2
20260507180639 0 45 0.0 0.0 0.00 0.00 0.00 1011.9
20260507175828 0 45 0.0 0.0 0.00 0.00 0.00 1011.7
20260507175026 0 45 0.0 0.0 0.00 0.00 0.00 1011.7
20260507174226 0 203 0.0 0.0 0.00 0.00 0.00 1011.5
20260507173423 0 203 0.0 0.0 0.00 0.00 0.00 1011.4
20260507172618 0 203 0.0 0.0 0.00 0.00 0.00 1011.1
20260507171816 0 203 0.0 0.0 0.00 0.00 0.00 1011.0
20260507171012 0 45 0.0 0.0 0.00 0.00 0.00 1010.9
20260507170208 0 45 0.0 0.0 0.00 0.00 0.00 1010.8
20260507165407 0 45 0.0 0.0 0.00 0.00 0.00 1010.7
20260507164605 0 45 0.0 0.0 0.00 0.00 0.00 1010.6
20260507163800 0 135 0.0 0.0 0.00 0.00 0.00 1010.5
20260507162957 0 135 0.0 0.0 0.00 0.00 0.00 1010.3
20260507162152 0 135 0.0 0.0 0.00 0.00 0.00 1009.9
20260507161349 0 135 0.0 0.0 0.00 0.00 0.00 1009.5
20260507160544 0 248 0.0 0.0 0.00 0.00 0.00 1009.5
20260507155739 0 248 0.0 0.0 0.00 0.00 0.00 1009.8
20260507154934 0 248 0.0 0.0 0.00 0.00 0.00 1009.4
20260507154132 0 248 0.0 0.0 0.00 0.00 0.00 1009.3
20260507153331 0 248 0.0 0.0 0.00 0.00 0.00 1009.6
20260507152529 0 180 0.0 0.0 0.00 0.00 0.00 1009.3
20260507151727 0 45 0.0 0.0 0.00 0.00 0.00 1009.9
20260507150923 0 45 0.0 0.0 0.00 0.00 0.00 1010.0
20260507150117 0 180 0.0 0.0 0.00 0.00 0.00 1009.4
20260507145308 0 180 0.0 0.0 0.00 0.00 0.00 1009.2
20260507144502 0 180 0.0 0.0 0.00 0.00 0.00 1008.9
20260507143645 0 180 0.0 0.0 0.00 0.00 0.00 1009.7
20260507142836 0 248 0.0 0.0 0.00 0.00 0.00 1009.6
20260507142016 0 180 0.0 0.0 0.00 0.00 0.00 1010.4
20260507141208 0 203 0.0 0.0 0.00 0.00 0.00 1010.5
20260507140353 0 248 0.0 0.0 0.00 0.00 0.00 1010.5
20260507135549 0 248 0.0 0.0 0.00 0.00 0.00 1010.7
20260507134745 0 248 0.0 0.0 0.00 0.00 0.00 1010.6
20260507133945 0 248 0.0 0.0 0.00 0.00 0.00 1010.4
20260507133144 0 135 0.0 0.0 0.00 0.00 0.00 1010.0
20260507132343 0 248 0.0 0.0 0.00 0.00 0.00 1009.9
20260507131544 0 180 0.0 0.0 0.00 0.00 0.00 1009.6
20260507130743 0 248 0.0 0.0 0.00 0.00 0.00 1009.5
20260507125941 0 180 0.0 0.0 0.00 0.00 0.00 1009.8
20260507125142 0 248 0.0 0.0 0.00 0.00 0.00 1009.6
20260507124337 0 180 0.0 0.0 0.00 0.00 0.00 1009.4
20260507123531 0 180 0.0 0.0 0.00 0.00 0.00 1009.1
20260507122728 0 180 0.0 0.0 0.00 0.00 0.00 1009.8
20260507121926 0 248 0.0 0.0 0.00 0.00 0.00 1009.8
20260507121121 0 180 0.0 0.0 0.00 0.00 0.00 1009.6
20260507120319 0 180 0.0 0.0 0.00 0.00 0.00 1009.3
20260507115519 0 203 0.0 0.0 0.00 0.00 0.00 1009.6
20260507114719 0 180 0.0 0.0 0.00 0.00 0.00 1009.7
20260507113917 0 180 0.0 0.0 0.00 0.00 0.00 1009.6
20260507113115 0 248 0.0 0.0 0.00 0.00 0.00 1009.9
20260507112315 0 180 0.0 0.0 0.00 0.00 0.00 1009.6
20260507111515 0 180 0.0 0.0 0.00 0.00 0.00 1009.0
20260507110715 0 315 0.0 0.0 0.00 0.00 0.00 1009.3
20260507105915 0 248 0.0 0.0 0.00 0.00 0.00 1009.4
20260507105115 0 248 0.0 0.0 0.00 0.00 0.00 1009.6
20260507104311 0 135 0.0 2.6 0.00 0.00 0.00 1009.6
20260507103512 0 180 0.0 0.0 0.00 0.00 0.00 1009.5
20260507102712 0 203 0.0 0.0 0.00 0.00 0.00 1009.7
20260507101911 0 180 0.0 0.0 0.00 0.00 0.00 1009.5
20260507101110 0 203 0.0 0.0 0.00 0.00 0.00 1009.5
20260507100311 0 180 0.0 0.0 0.00 0.00 0.00 1009.7
20260507095513 0 180 0.0 0.0 0.00 0.00 0.00 1009.9
20260507094712 0 248 0.0 0.0 0.00 0.00 0.00 1010.0
20260507093913 0 180 0.0 0.0 0.00 0.00 0.00 1009.8
20260507093112 0 45 0.0 0.0 0.00 0.00 0.00 1009.7
20260507092312 0 45 0.0 0.0 0.00 0.00 0.00 1009.8
20260507091513 0 203 0.0 0.0 0.00 0.00 0.00 1009.7
20260507090709 0 158 0.0 0.0 0.00 0.00 0.00 1010.0
20260507085909 0 180 0.0 0.0 0.00 0.00 0.00 1010.0
20260507085109 0 248 0.0 0.0 0.00 0.00 0.00 1010.1
20260507084307 0 180 0.0 0.0 0.00 0.00 0.00 1010.1
20260507083507 0 135 0.0 0.0 0.00 0.00 0.00 1010.0
20260507082706 0 135 0.0 0.0 0.00 0.00 0.00 1010.0
20260507081907 0 135 0.0 0.0 0.00 0.00 0.00 1009.8
20260507081107 0 180 0.0 0.0 0.00 0.00 0.00 1009.6
20260507080307 0 180 0.0 0.0 0.00 0.00 0.00 1009.9
20260507075507 0 248 0.0 0.0 0.00 0.00 0.00 1009.9
20260507074706 0 180 0.0 0.0 0.00 0.00 0.00 1009.8
20260507073906 0 180 0.0 0.0 0.00 0.00 0.00 1009.9
20260507073106 0 135 0.0 0.0 0.00 0.00 0.00 1009.9
20260507072306 0 180 0.0 0.0 0.00 0.00 0.00 1009.9
20260507071505 0 248 0.0 0.0 0.00 0.00 0.00 1009.9
20260507070706 0 248 0.0 0.0 0.00 0.00 0.00 1009.9
20260507065905 0 203 0.0 0.0 0.00 0.00 0.00 1009.9
20260507065105 0 180 0.0 0.0 0.00 0.00 0.00 1009.8
20260507064305 0 203 0.0 0.0 0.00 0.00 0.00 1009.8
20260507063505 0 203 0.0 0.0 0.00 0.00 0.00 1009.6
20260507062704 0 248 0.0 0.0 0.00 0.00 0.00 1009.5
20260507061905 0 45 0.0 0.0 0.00 0.00 0.00 1009.4
20260507061104 0 45 0.0 0.0 0.00 0.00 0.00 1009.3
20260507060306 0 135 0.0 0.0 0.00 0.00 0.00 1009.2
20260507055506 0 180 0.0 0.0 0.00 0.00 0.00 1009.2
20260507054702 0 248 0.0 0.0 0.00 0.00 0.00 1009.2
20260507053901 0 248 0.0 0.0 0.00 0.00 0.00 1009.0
20260507053101 0 45 0.0 0.0 0.00 0.00 0.00 1008.9
20260507052259 0 248 0.0 0.0 0.00 0.00 0.00 1008.8
20260507051459 0 248 0.0 0.0 0.00 0.00 0.00 1008.8
20260507050659 0 158 0.0 0.0 0.00 0.00 0.00 1008.7
20260507045857 0 180 0.0 0.0 0.00 0.00 0.00 1008.7
20260507045058 0 248 0.0 0.0 0.00 0.00 0.00 1008.5
20260507044257 0 180 0.0 0.0 0.00 0.00 0.00 1008.7
20260507043454 0 248 0.0 0.0 0.00 0.00 0.00 1008.5
20260507042653 0 180 0.0 0.0 0.00 0.00 0.00 1008.5
20260507041851 0 248 0.0 0.0 0.00 0.00 0.00 1008.4
20260507041048 0 180 0.0 0.0 0.00 0.00 0.00 1008.3
20260507040245 0 180 0.0 0.0 0.00 0.00 0.00 1008.3
20260507035443 0 248 0.0 0.0 0.00 0.00 0.00 1008.2
20260507034643 0 248 0.0 0.0 0.00 0.00 0.00 1008.3
20260507033843 0 180 0.0 0.0 0.00 0.00 0.00 1008.4
20260507033042 0 135 0.0 0.0 0.00 0.00 0.00 1008.5
20260507032243 0 135 0.0 0.0 0.00 0.00 0.00 1008.6
20260507031444 0 135 0.0 0.0 0.00 0.00 0.00 1008.6
20260507030642 0 135 0.0 0.0 0.00 0.00 0.00 1008.4
20260507025841 0 135 0.0 0.0 0.00 0.00 0.00 1008.2
20260507025040 0 45 0.0 0.0 0.00 0.00 0.00 1008.1
20260507024241 0 135 0.0 0.0 0.00 0.00 0.00 1008.2
20260507023441 0 248 0.0 0.0 0.00 0.00 0.00 1008.3
20260507022640 0 180 0.0 0.0 0.00 0.00 0.00 1008.3
20260507021839 0 135 0.0 0.0 0.00 0.00 0.00 1008.2
20260507021036 0 45 0.0 0.0 0.00 0.00 0.00 1007.9
20260507020236 0 45 0.0 0.0 0.00 0.00 0.00 1007.8
20260507015436 0 45 0.0 0.0 0.00 0.00 0.00 1007.7
20260507014635 0 45 0.0 0.0 0.00 0.00 0.00 1007.6
20260507013832 0 45 0.0 0.0 0.00 0.00 0.00 1007.5
20260507013028 0 45 0.0 0.0 0.00 0.00 0.00 1007.6
20260507012230 0 45 0.0 0.0 0.00 0.00 0.00 1007.6
20260507011429 0 90 0.0 0.0 0.00 0.00 0.00 1007.4
20260507010629 0 248 0.0 0.0 0.00 0.00 0.00 1007.3
20260507005824 0 45 0.0 0.0 0.00 0.00 0.00 1007.2
20260507005024 0 248 0.0 0.0 0.00 0.00 0.00 1007.2
20260507004223 0 248 0.0 0.0 0.00 0.00 0.00 1007.2
20260507003423 0 45 0.0 0.0 0.00 0.00 0.00 1007.2
20260507002623 0 45 0.0 0.0 0.00 0.00 0.00 1007.0
20260507001823 0 45 0.0 0.0 0.00 0.00 0.00 1006.8
20260507001022 0 45 0.0 0.0 0.00 0.00 0.00 1006.6
20260507000221 0 45 0.0 0.0 0.00 0.00 0.00 1006.5
20260506235420 0 45 0.0 0.0 0.00 0.01 0.00 1006.4
20260506234620 0 45 0.0 0.0 0.00 0.01 0.00 1006.2
20260506233817 0 45 0.0 0.0 0.00 0.01 0.00 1006.0
20260506233017 0 45 0.0 0.0 0.00 0.01 0.00 1005.9
20260506232216 0 45 0.0 0.0 0.00 0.01 0.00 1005.8
20260506231417 0 45 0.0 0.0 0.00 0.01 0.00 1005.8
20260506230616 0 45 0.0 0.0 0.00 0.01 0.00 1005.9
20260506225815 0 45 0.0 0.0 0.00 0.01 0.00 1006.0
20260506225014 0 45 0.0 0.0 0.00 0.01 0.00 1005.7
20260506224215 0 45 0.0 0.0 0.00 0.01 0.00 1005.8
20260506223414 0 45 0.0 0.0 0.00 0.01 0.00 1005.7
20260506222613 0 45 0.0 0.0 0.00 0.01 0.00 1005.9
20260506221814 0 45 0.0 0.9 0.00 0.01 0.00 1005.7
20260506221013 0 45 0.0 0.0 0.00 0.01 0.00 1005.7
20260506220207 0 180 0.0 0.0 0.00 0.01 0.00 1005.2
20260506215407 0 180 0.0 0.9 0.00 0.01 0.01 1004.9
20260506214606 0 180 0.0 0.0 0.00 0.01 0.01 1004.3
20260506213806 0 248 0.0 0.0 0.00 0.01 0.01 1004.2
20260506213006 0 180 0.0 0.0 0.00 0.01 0.01 1004.1
20260506212202 0 135 0.0 0.0 0.00 0.01 0.01 1004.0
20260506211402 0 135 0.0 0.0 0.00 0.01 0.01 1004.0
20260506210600 0 180 0.0 0.0 0.00 0.01 0.01 1004.0
20260506205759 0 180 0.0 0.0 0.00 0.01 0.01 1004.1
20260506204956 0 180 0.0 0.0 0.00 0.01 0.01 1004.2
20260506204153 0 180 0.0 0.0 0.00 0.01 0.01 1004.2